,,,PA_Meas_PMT16A,,PR_Meas_QMR101_102,,RH_Meas_QMH101,,SR_Meas_QMS101,,TA_Meas_QMH101,,GenWind,,GenWind,
date,time,status,PA,status,PR,status,RH,status,SR,status,TA,status,DirAvg,status,SpdAvg,
2011-09-18, 00:00:04,VALID,1001.35,VALID,0,VALID,93.6765,VALID,0,VALID,23.2719,VALID,46,VALID,0.355469,
2011-09-18, 00:01:04,VALID,1001.38,VALID,0,VALID,93.6612,VALID,0,VALID,23.2719,VALID,46,VALID,0.358984,
2011-09-18, 00:02:04,VALID,1001.33,VALID,0,VALID,93.6688,VALID,0,VALID,23.2719,VALID,46,VALID,0.285937,
2011-09-18, 00:03:04,VALID,1001.34,VALID,0,VALID,93.6765,VALID,0,VALID,23.2719,VALID,46,VALID,0.245703,
2011-09-18, 00:04:04,VALID,1001.34,VALID,0,VALID,93.6765,VALID,0,VALID,23.2719,VALID,46,VALID,0.310156,
2011-09-18, 00:05:04,VALID,1001.34,VALID,0,VALID,93.6917,VALID,0,VALID,23.2524,VALID,46,VALID,0.139844,
2011-09-18, 00:06:04,VALID,1001.37,VALID,0,VALID,93.6994,VALID,0,VALID,23.2524,VALID,46,VALID,0.230469,
2011-09-18, 00:07:04,VALID,1001.36,VALID,0,VALID,93.6841,VALID,0,VALID,23.2329,VALID,46,VALID,0.333984,
2011-09-18, 00:08:04,VALID,1001.38,VALID,0,VALID,93.6765,VALID,0,VALID,23.2524,VALID,46,VALID,0.280469,
2011-09-18, 00:09:04,VALID,1001.37,VALID,0,VALID,93.707,VALID,0,VALID,23.2329,VALID,46,VALID,0.419922,
2011-09-18, 00:10:04,VALID,1001.32,VALID,0,VALID,93.6994,VALID,0,VALID,23.2329,VALID,46,VALID,0.566016,
2011-09-18, 00:11:04,VALID,1001.35,VALID,0,VALID,93.7223,VALID,0,VALID,23.2329,VALID,46,VALID,0.376563,
2011-09-18, 00:12:04,VALID,1001.36,VALID,0,VALID,93.7451,VALID,0,VALID,23.2134,VALID,46,VALID,0.119141,
2011-09-18, 00:13:04,VALID,1001.33,VALID,0,VALID,93.7299,VALID,0,VALID,23.1744,VALID,46,VALID,0,
2011-09-18, 00:14:04,VALID,1001.33,VALID,0,VALID,93.7375,VALID,0,VALID,23.1744,VALID,46,VALID,0,
2011-09-18, 00:15:04,VALID,1001.32,VALID,0,VALID,93.7299,VALID,0,VALID,23.1744,VALID,46,VALID,0,
2011-09-18, 00:16:04,VALID,1001.27,VALID,0,VALID,93.7299,VALID,0,VALID,23.1744,VALID,46,VALID,0,
2011-09-18, 00:17:04,VALID,1001.26,VALID,0,VALID,93.7528,VALID,0,VALID,23.1744,VALID,46,VALID,0.43125,
2011-09-18, 00:18:04,VALID,1001.23,VALID,0,VALID,93.7528,VALID,0,VALID,23.1744,VALID,46,VALID,0.454297,
2011-09-18, 00:19:04,VALID,1001.22,VALID,0,VALID,93.7604,VALID,0,VALID,23.1744,VALID,46,VALID,0.396875,
2011-09-18, 00:20:04,VALID,1001.17,VALID,0,VALID,93.768,VALID,0,VALID,23.1531,VALID,46,VALID,0.597656,
2011-09-18, 00:21:04,VALID,1001.16,VALID,0,VALID,93.7909,VALID,0,VALID,23.1939,VALID,46,VALID,0.626562,
2011-09-18, 00:22:04,VALID,1001.18,VALID,0,VALID,93.7604,VALID,0,VALID,23.1744,VALID,46,VALID,0.483203,
2011-09-18, 00:23:04,VALID,1001.18,VALID,0,VALID,93.7833,VALID,0,VALID,23.1957,VALID,46,VALID,0.0722656,
2011-09-18, 00:24:04,VALID,1001.18,VALID,0,VALID,93.7985,VALID,0,VALID,23.1762,VALID,46,VALID,0,
2011-09-18, 00:25:04,VALID,1001.18,VALID,0,VALID,93.7985,VALID,0,VALID,23.1566,VALID,46,VALID,0,
2011-09-18, 00:26:04,VALID,1001.14,VALID,0,VALID,93.8138,VALID,0,VALID,23.1371,VALID,46,VALID,0,
2011-09-18, 00:27:04,VALID,1001.14,VALID,0,VALID,93.7985,VALID,0,VALID,23.1354,VALID,46,VALID,0,
2011-09-18, 00:28:04,VALID,1001.11,VALID,0,VALID,93.8214,VALID,0,VALID,23.1354,VALID,46,VALID,0,
2011-09-18, 00:29:04,VALID,1001.08,VALID,0,VALID,93.8138,VALID,0,VALID,23.1762,VALID,46,VALID,0,
2011-09-18, 00:30:04,VALID,1001.07,VALID,0,VALID,93.8214,VALID,0,VALID,23.1762,VALID,46,VALID,0,
2011-09-18, 00:31:04,VALID,1001.02,VALID,0,VALID,93.8138,VALID,0,VALID,23.1762,VALID,46,VALID,0,
2011-09-18, 00:32:04,VALID,1000.99,VALID,0,VALID,93.8291,VALID,0,VALID,23.1566,VALID,46,VALID,0,
2011-09-18, 00:33:04,VALID,1001,VALID,0,VALID,93.8214,VALID,0,VALID,23.1762,VALID,46,VALID,0,
2011-09-18, 00:34:04,VALID,1000.98,VALID,0,VALID,93.8291,VALID,0,VALID,23.1762,VALID,46,VALID,0,
2011-09-18, 00:35:04,VALID,1000.99,VALID,0,VALID,93.8291,VALID,0,VALID,23.1371,VALID,46,VALID,0,
2011-09-18, 00:36:04,VALID,1001,VALID,0,VALID,93.8291,VALID,0,VALID,23.1371,VALID,46,VALID,0,
2011-09-18, 00:37:04,VALID,1000.97,VALID,0,VALID,93.8214,VALID,0,VALID,23.1176,VALID,46,VALID,0,
2011-09-18, 00:38:04,VALID,1000.95,VALID,0,VALID,93.8214,VALID,0,VALID,23.1176,VALID,46,VALID,0,
2011-09-18, 00:39:04,VALID,1000.91,VALID,0,VALID,93.8214,VALID,0,VALID,23.1176,VALID,46,VALID,0,
2011-09-18, 00:40:04,VALID,1000.92,VALID,0,VALID,93.8291,VALID,0,VALID,23.0964,VALID,46,VALID,0,
2011-09-18, 00:41:04,VALID,1000.88,VALID,0,VALID,93.8214,VALID,0,VALID,23.0751,VALID,46,VALID,0,
2011-09-18, 00:42:04,VALID,1000.87,VALID,0,VALID,93.8367,VALID,0,VALID,23.0573,VALID,46,VALID,0,
2011-09-18, 00:43:04,VALID,1000.82,VALID,0,VALID,93.8138,VALID,0,VALID,23.0769,VALID,46,VALID,0,
2011-09-18, 00:44:04,VALID,1000.77,VALID,0,VALID,93.8138,VALID,0,VALID,23.0769,VALID,46,VALID,0,
2011-09-18, 00:45:04,VALID,1000.79,VALID,0,VALID,93.8291,VALID,0,VALID,23.1354,VALID,46,VALID,0,
2011-09-18, 00:46:04,VALID,1000.79,VALID,0,VALID,93.8214,VALID,0,VALID,23.1336,VALID,46,VALID,0,
2011-09-18, 00:47:04,VALID,1000.79,VALID,0,VALID,93.8367,VALID,0,VALID,23.1744,VALID,46,VALID,0,
2011-09-18, 00:48:04,VALID,1000.78,VALID,0,VALID,93.8367,VALID,0,VALID,23.1744,VALID,46,VALID,0,
2011-09-18, 00:49:04,VALID,1000.76,VALID,0,VALID,93.8672,VALID,0,VALID,23.1939,VALID,46,VALID,0.486719,
2011-09-18, 00:50:04,VALID,1000.72,VALID,0,VALID,93.852,VALID,0,VALID,23.1744,VALID,46,VALID,0.344922,
2011-09-18, 00:51:04,VALID,1000.75,VALID,0,VALID,93.8443,VALID,0,VALID,23.1939,VALID,46,VALID,0.358594,
2011-09-18, 00:52:04,VALID,1000.71,VALID,0,VALID,93.8596,VALID,0,VALID,23.1939,VALID,49,VALID,0.413281,
2011-09-18, 00:53:04,VALID,1000.71,VALID,0,VALID,93.8672,VALID,0,VALID,23.2134,VALID,49,VALID,0.605859,
2011-09-18, 00:54:04,VALID,1000.72,VALID,0,VALID,93.8596,VALID,0,VALID,23.2524,VALID,49,VALID,0.760938,
2011-09-18, 00:55:04,VALID,1000.75,VALID,0,VALID,93.8596,VALID,0,VALID,23.2932,VALID,149,VALID,1.32734,
2011-09-18, 00:56:04,VALID,1000.72,VALID,0,VALID,93.8672,VALID,0,VALID,23.3518,VALID,171,VALID,1.26836,
2011-09-18, 00:57:04,VALID,1000.73,VALID,0,VALID,93.8596,VALID,0,VALID,23.3908,VALID,172,VALID,0.845312,
2011-09-18, 00:58:04,VALID,1000.72,VALID,0,VALID,93.8596,VALID,0,VALID,23.4085,VALID,172,VALID,0.425391,
2011-09-18, 00:59:04,VALID,1000.68,VALID,0,VALID,93.8367,VALID,0,VALID,23.4493,VALID,172,VALID,0.231641,
2011-09-18, 01:00:04,VALID,1000.69,VALID,0,VALID,93.8443,VALID,0,VALID,23.428,VALID,172,VALID,0.113672,
2011-09-18, 01:01:04,VALID,1000.68,VALID,0,VALID,93.8367,VALID,0,VALID,23.4103,VALID,172,VALID,0.154687,
2011-09-18, 01:02:04,VALID,1000.71,VALID,0,VALID,93.8367,VALID,0,VALID,23.3713,VALID,172,VALID,0.383594,
2011-09-18, 01:03:04,VALID,1000.67,VALID,0,VALID,93.8443,VALID,0,VALID,23.3518,VALID,172,VALID,0.319531,
2011-09-18, 01:04:04,VALID,1000.68,VALID,0,VALID,93.8214,VALID,0,VALID,23.3127,VALID,172,VALID,0.265234,
2011-09-18, 01:05:04,VALID,1000.67,VALID,0,VALID,93.8062,VALID,0,VALID,23.2932,VALID,172,VALID,0.4125,
2011-09-18, 01:06:04,VALID,1000.62,VALID,0,VALID,93.7757,VALID,0,VALID,23.2737,VALID,172,VALID,0.619531,
2011-09-18, 01:07:04,VALID,1000.58,VALID,0,VALID,93.7604,VALID,0,VALID,23.2329,VALID,172,VALID,0.808594,
2011-09-18, 01:08:04,VALID,1000.6,VALID,0,VALID,93.7528,VALID,0,VALID,23.2134,VALID,172,VALID,0.852734,
2011-09-18, 01:09:04,VALID,1000.58,VALID,0,VALID,93.7604,VALID,0,VALID,23.1957,VALID,172,VALID,0.632031,
2011-09-18, 01:10:04,VALID,1000.59,VALID,0,VALID,93.7528,VALID,0,VALID,23.1744,VALID,172,VALID,0.421094,
2011-09-18, 01:11:04,VALID,1000.55,VALID,0,VALID,93.7375,VALID,0.112286,VALID,23.1141,VALID,172,VALID,0.194531,
2011-09-18, 01:12:04,VALID,1000.57,VALID,0,VALID,93.7299,VALID,0,VALID,23.0964,VALID,172,VALID,0.394141,
2011-09-18, 01:13:04,VALID,1000.56,VALID,0,VALID,93.7451,VALID,0,VALID,23.0573,VALID,172,VALID,0.530469,
2011-09-18, 01:14:04,VALID,1000.52,VALID,0,VALID,93.7223,VALID,0,VALID,23.0964,VALID,172,VALID,0.801953,
2011-09-18, 01:15:04,VALID,1000.55,VALID,0,VALID,93.7528,VALID,0,VALID,23.0946,VALID,78,VALID,0.696094,
2011-09-18, 01:16:04,VALID,1000.57,VALID,0,VALID,93.7451,VALID,0,VALID,23.1159,VALID,78,VALID,0.475781,
2011-09-18, 01:17:04,VALID,1000.58,VALID,0,VALID,93.7451,VALID,0.112286,VALID,23.0946,VALID,78,VALID,0.138672,
2011-09-18, 01:18:04,VALID,1000.58,VALID,0,VALID,93.7604,VALID,0,VALID,23.0964,VALID,78,VALID,0.0328125,
2011-09-18, 01:19:04,VALID,1000.59,VALID,0,VALID,93.7604,VALID,0,VALID,23.0769,VALID,78,VALID,0.100781,
2011-09-18, 01:20:04,VALID,1000.58,VALID,0,VALID,93.7757,VALID,0,VALID,23.0573,VALID,78,VALID,0,
2011-09-18, 01:21:04,VALID,1000.59,VALID,0,VALID,93.768,VALID,0,VALID,23.0573,VALID,78,VALID,0,
2011-09-18, 01:22:04,VALID,1000.59,VALID,0,VALID,93.7833,VALID,0,VALID,23.0769,VALID,78,VALID,0,
2011-09-18, 01:23:04,VALID,1000.56,VALID,0,VALID,93.7909,VALID,0,VALID,23.0964,VALID,78,VALID,0,
2011-09-18, 01:24:04,VALID,1000.53,VALID,0,VALID,93.7833,VALID,0,VALID,23.1159,VALID,78,VALID,0.537109,
2011-09-18, 01:25:04,VALID,1000.51,VALID,0,VALID,93.7985,VALID,0,VALID,23.1354,VALID,78,VALID,0.557422,
2011-09-18, 01:26:04,VALID,1000.47,VALID,0,VALID,93.7985,VALID,0,VALID,23.1531,VALID,78,VALID,0.399219,
2011-09-18, 01:27:04,VALID,1000.45,VALID,0,VALID,93.8214,VALID,0.112286,VALID,23.1939,VALID,78,VALID,0.354688,
2011-09-18, 01:28:04,VALID,1000.46,VALID,0,VALID,93.8138,VALID,0,VALID,23.1939,VALID,78,VALID,0.476953,
2011-09-18, 01:29:04,VALID,1000.44,VALID,0,VALID,93.8291,VALID,0,VALID,23.2134,VALID,78,VALID,0.513281,
2011-09-18, 01:30:04,VALID,1000.41,VALID,0,VALID,93.8367,VALID,0,VALID,23.2134,VALID,78,VALID,0.601953,
2011-09-18, 01:31:04,VALID,1000.42,VALID,0,VALID,93.852,VALID,0,VALID,23.1939,VALID,78,VALID,0.685547,
2011-09-18, 01:32:04,VALID,1000.41,VALID,0,VALID,93.8596,VALID,0,VALID,23.1531,VALID,78,VALID,0.799609,
2011-09-18, 01:33:04,VALID,1000.4,VALID,0,VALID,93.8443,VALID,0,VALID,23.1549,VALID,78,VALID,0.732813,
2011-09-18, 01:34:04,VALID,1000.42,VALID,0,VALID,93.8443,VALID,0,VALID,23.1549,VALID,78,VALID,0.746875,
2011-09-18, 01:35:04,VALID,1000.4,VALID,0,VALID,93.8443,VALID,0,VALID,23.1549,VALID,78,VALID,0.777344,
2011-09-18, 01:36:04,VALID,1000.41,VALID,0,VALID,93.8443,VALID,0,VALID,23.1354,VALID,78,VALID,0.719531,
2011-09-18, 01:37:04,VALID,1000.43,VALID,0,VALID,93.8214,VALID,0,VALID,23.1159,VALID,78,VALID,0.677734,
2011-09-18, 01:38:04,VALID,1000.44,VALID,0,VALID,93.8367,VALID,0,VALID,23.1354,VALID,78,VALID,0.572266,
2011-09-18, 01:39:04,VALID,1000.43,VALID,0,VALID,93.8138,VALID,0,VALID,23.1159,VALID,78,VALID,0.665234,
2011-09-18, 01:40:04,VALID,1000.42,VALID,0,VALID,93.8138,VALID,0,VALID,23.1159,VALID,78,VALID,0.651172,
2011-09-18, 01:41:04,VALID,1000.44,VALID,0,VALID,93.8138,VALID,0,VALID,23.0946,VALID,78,VALID,0.717578,
2011-09-18, 01:42:04,VALID,1000.47,VALID,0,VALID,93.8062,VALID,0,VALID,23.1159,VALID,78,VALID,0.862109,
2011-09-18, 01:43:04,VALID,1000.5,VALID,0,VALID,93.7909,VALID,0,VALID,23.1159,VALID,78,VALID,0.938672,
2011-09-18, 01:44:04,VALID,1000.5,VALID,0,VALID,93.8062,VALID,0,VALID,23.0964,VALID,78,VALID,0.994141,
2011-09-18, 01:45:04,VALID,1000.48,VALID,0,VALID,93.768,VALID,0,VALID,23.0964,VALID,78,VALID,1.09102,
2011-09-18, 01:46:04,VALID,1000.51,VALID,0,VALID,93.7757,VALID,0,VALID,23.0769,VALID,78,VALID,0.929688,
2011-09-18, 01:47:04,VALID,1000.5,VALID,0,VALID,93.7375,VALID,0,VALID,23.0769,VALID,76,VALID,1.1125,
2011-09-18, 01:48:04,VALID,1000.5,VALID,0,VALID,93.7375,VALID,0,VALID,23.0964,VALID,63,VALID,1.23555,
2011-09-18, 01:49:04,VALID,1000.5,VALID,0,VALID,93.7299,VALID,0,VALID,23.0964,VALID,63,VALID,1.00078,
2011-09-18, 01:50:04,VALID,1000.5,VALID,0,VALID,93.6917,VALID,0,VALID,23.0964,VALID,63,VALID,0.912891,
2011-09-18, 01:51:04,VALID,1000.49,VALID,0,VALID,93.6688,VALID,0,VALID,23.0769,VALID,63,VALID,1.08594,
2011-09-18, 01:52:04,VALID,1000.48,VALID,0,VALID,93.6536,VALID,0,VALID,23.0573,VALID,63,VALID,1.3543,
2011-09-18, 01:53:04,VALID,1000.52,VALID,0,VALID,93.6231,VALID,0,VALID,23.0556,VALID,63,VALID,1.10156,
2011-09-18, 01:54:04,VALID,1000.54,VALID,0,VALID,93.5926,VALID,0,VALID,23.0769,VALID,63,VALID,1.0457,
2011-09-18, 01:55:04,VALID,1000.53,VALID,0,VALID,93.5773,VALID,0,VALID,23.0573,VALID,63,VALID,0.821484,
2011-09-18, 01:56:04,VALID,1000.52,VALID,0,VALID,93.5315,VALID,0,VALID,23.0378,VALID,63,VALID,0.732031,
2011-09-18, 01:57:04,VALID,1000.51,VALID,0,VALID,93.5239,VALID,0,VALID,23.0166,VALID,63,VALID,0.65625,
2011-09-18, 01:58:04,VALID,1000.53,VALID,0,VALID,93.501,VALID,0,VALID,23.0378,VALID,63,VALID,0.532422,
2011-09-18, 01:59:04,VALID,1000.51,VALID,0,VALID,93.501,VALID,0,VALID,23.0183,VALID,63,VALID,0.526953,
2011-09-18, 02:00:04,VALID,1000.49,VALID,0,VALID,93.4705,VALID,0,VALID,23.0183,VALID,63,VALID,0.527734,
2011-09-18, 02:01:04,VALID,1000.5,VALID,0,VALID,93.4552,VALID,0,VALID,23.0183,VALID,63,VALID,0.697266,
2011-09-18, 02:02:04,VALID,1000.48,VALID,0,VALID,93.4476,VALID,0,VALID,23.0183,VALID,63,VALID,0.570703,
2011-09-18, 02:03:04,VALID,1000.49,VALID,0,VALID,93.4552,VALID,0.112286,VALID,22.9988,VALID,63,VALID,0.479297,
2011-09-18, 02:04:04,VALID,1000.47,VALID,0,VALID,93.4476,VALID,0.112286,VALID,22.9776,VALID,63,VALID,0.241016,
2011-09-18, 02:05:04,VALID,1000.48,VALID,0,VALID,93.44,VALID,0,VALID,22.9793,VALID,63,VALID,0.152734,
2011-09-18, 02:06:04,VALID,1000.47,VALID,0,VALID,93.4247,VALID,0,VALID,22.9988,VALID,63,VALID,0.252344,
2011-09-18, 02:07:04,VALID,1000.46,VALID,0,VALID,93.44,VALID,0,VALID,22.9793,VALID,63,VALID,0.210156,
2011-09-18, 02:08:04,VALID,1000.45,VALID,0,VALID,93.4705,VALID,0,VALID,22.9988,VALID,63,VALID,0,
2011-09-18, 02:09:04,VALID,1000.44,VALID,0,VALID,93.44,VALID,0.112286,VALID,22.9988,VALID,63,VALID,0,
2011-09-18, 02:10:04,VALID,1000.48,VALID,0,VALID,93.4705,VALID,0.112286,VALID,22.9581,VALID,63,VALID,0,
2011-09-18, 02:11:04,VALID,1000.44,VALID,0,VALID,93.4934,VALID,0,VALID,22.9793,VALID,63,VALID,0,
2011-09-18, 02:12:04,VALID,1000.46,VALID,0,VALID,93.4857,VALID,0,VALID,22.9793,VALID,63,VALID,0,
2011-09-18, 02:13:04,VALID,1000.44,VALID,0,VALID,93.4628,VALID,0,VALID,22.919,VALID,63,VALID,0,
2011-09-18, 02:14:04,VALID,1000.45,VALID,0,VALID,93.4857,VALID,0,VALID,22.9208,VALID,63,VALID,0,
2011-09-18, 02:15:04,VALID,1000.44,VALID,0,VALID,93.4628,VALID,0.112286,VALID,22.8995,VALID,63,VALID,0,
2011-09-18, 02:16:04,VALID,1000.46,VALID,0,VALID,93.4552,VALID,0,VALID,22.9013,VALID,63,VALID,0,
2011-09-18, 02:17:04,VALID,1000.47,VALID,0,VALID,93.4781,VALID,0,VALID,22.8995,VALID,63,VALID,0,
2011-09-18, 02:18:04,VALID,1000.45,VALID,0,VALID,93.4934,VALID,0,VALID,22.8818,VALID,63,VALID,0,
2011-09-18, 02:19:04,VALID,1000.42,VALID,0,VALID,93.4934,VALID,0,VALID,22.9013,VALID,63,VALID,0,
2011-09-18, 02:20:04,VALID,1000.45,VALID,0,VALID,93.501,VALID,0,VALID,22.9208,VALID,63,VALID,0,
2011-09-18, 02:21:04,VALID,1000.43,VALID,0,VALID,93.5315,VALID,0,VALID,22.9208,VALID,63,VALID,0,
2011-09-18, 02:22:04,VALID,1000.45,VALID,0,VALID,93.5544,VALID,0,VALID,22.9403,VALID,63,VALID,0.263672,
2011-09-18, 02:23:04,VALID,1000.44,VALID,0,VALID,93.5697,VALID,0,VALID,22.9598,VALID,63,VALID,0.348437,
2011-09-18, 02:24:04,VALID,1000.45,VALID,0,VALID,93.5773,VALID,0,VALID,22.9385,VALID,63,VALID,0.417969,
2011-09-18, 02:25:04,VALID,1000.47,VALID,0,VALID,93.5926,VALID,0,VALID,22.9988,VALID,63,VALID,0.464844,
2011-09-18, 02:26:04,VALID,1000.49,VALID,0,VALID,93.5849,VALID,0,VALID,23.0183,VALID,63,VALID,0.635547,
2011-09-18, 02:27:04,VALID,1000.47,VALID,0,VALID,93.5697,VALID,0,VALID,23.0183,VALID,63,VALID,0.567969,
2011-09-18, 02:28:04,VALID,1000.45,VALID,0,VALID,93.5544,VALID,0,VALID,23.0378,VALID,63,VALID,0.482812,
2011-09-18, 02:29:04,VALID,1000.47,VALID,0,VALID,93.562,VALID,0.112286,VALID,23.0573,VALID,63,VALID,0.541016,
2011-09-18, 02:30:04,VALID,1000.43,VALID,0,VALID,93.5391,VALID,0,VALID,23.0769,VALID,63,VALID,0.459375,
2011-09-18, 02:31:04,VALID,1000.42,VALID,0,VALID,93.5315,VALID,0,VALID,23.0751,VALID,63,VALID,0.560156,
2011-09-18, 02:32:04,VALID,1000.45,VALID,0,VALID,93.5086,VALID,0,VALID,23.1159,VALID,63,VALID,0.497656,
2011-09-18, 02:33:04,VALID,1000.46,VALID,0,VALID,93.4781,VALID,0,VALID,23.1159,VALID,63,VALID,0.530078,
2011-09-18, 02:34:04,VALID,1000.44,VALID,0,VALID,93.44,VALID,0,VALID,23.0964,VALID,63,VALID,0.392188,
2011-09-18, 02:35:04,VALID,1000.45,VALID,0,VALID,93.3866,VALID,0,VALID,23.0751,VALID,63,VALID,0.545703,
2011-09-18, 02:36:04,VALID,1000.47,VALID,0,VALID,93.3408,VALID,0,VALID,23.0751,VALID,63,VALID,0.558984,
2011-09-18, 02:37:04,VALID,1000.47,VALID,0,VALID,93.3179,VALID,0,VALID,23.0751,VALID,63,VALID,0.552734,
2011-09-18, 02:38:04,VALID,1000.49,VALID,0,VALID,93.3103,VALID,0.112286,VALID,23.0946,VALID,63,VALID,0.467578,
2011-09-18, 02:39:04,VALID,1000.45,VALID,0,VALID,93.2721,VALID,0,VALID,23.1159,VALID,63,VALID,0.433984,
2011-09-18, 02:40:04,VALID,1000.44,VALID,0,VALID,93.2263,VALID,0,VALID,23.1354,VALID,63,VALID,0.301562,
2011-09-18, 02:41:04,VALID,1000.46,VALID,0,VALID,93.2111,VALID,0,VALID,23.1354,VALID,63,VALID,0.438281,
2011-09-18, 02:42:04,VALID,1000.43,VALID,0,VALID,93.1805,VALID,0,VALID,23.1531,VALID,63,VALID,0.432031,
2011-09-18, 02:43:04,VALID,1000.44,VALID,0,VALID,93.1882,VALID,0,VALID,23.1549,VALID,63,VALID,0.264453,
2011-09-18, 02:44:04,VALID,1000.43,VALID,0,VALID,93.1577,VALID,0,VALID,23.1549,VALID,63,VALID,0.114844,
2011-09-18, 02:45:04,VALID,1000.43,VALID,0,VALID,93.15,VALID,0,VALID,23.1744,VALID,63,VALID,0.00898437,
2011-09-18, 02:46:04,VALID,1000.45,VALID,0,VALID,93.1271,VALID,0,VALID,23.1354,VALID,63,VALID,0,
2011-09-18, 02:47:04,VALID,1000.43,VALID,0,VALID,93.1195,VALID,0,VALID,23.1354,VALID,63,VALID,0.158203,
2011-09-18, 02:48:04,VALID,1000.44,VALID,0,VALID,93.1348,VALID,0,VALID,23.1354,VALID,63,VALID,0.4125,
2011-09-18, 02:49:04,VALID,1000.42,VALID,0,VALID,93.1348,VALID,0,VALID,23.1354,VALID,63,VALID,0.607422,
2011-09-18, 02:50:04,VALID,1000.4,VALID,0,VALID,93.15,VALID,0,VALID,23.1354,VALID,63,VALID,0.545313,
2011-09-18, 02:51:04,VALID,1000.38,VALID,0,VALID,93.1577,VALID,0,VALID,23.1354,VALID,63,VALID,0.355859,
2011-09-18, 02:52:04,VALID,1000.38,VALID,0,VALID,93.15,VALID,0,VALID,23.1159,VALID,63,VALID,0.388281,
2011-09-18, 02:53:04,VALID,1000.36,VALID,0,VALID,93.1348,VALID,0,VALID,23.1159,VALID,63,VALID,0.351953,
2011-09-18, 02:54:04,VALID,1000.37,VALID,0,VALID,93.1348,VALID,0,VALID,23.0964,VALID,63,VALID,0.330469,
2011-09-18, 02:55:04,VALID,1000.32,VALID,0,VALID,93.1424,VALID,0,VALID,23.0786,VALID,63,VALID,0.248047,
2011-09-18, 02:56:04,VALID,1000.32,VALID,0,VALID,93.1653,VALID,0,VALID,23.0981,VALID,63,VALID,0.253125,
2011-09-18, 02:57:04,VALID,1000.32,VALID,0,VALID,93.2034,VALID,0,VALID,23.0786,VALID,63,VALID,0,
2011-09-18, 02:58:04,VALID,1000.29,VALID,0,VALID,93.1882,VALID,0,VALID,23.0591,VALID,63,VALID,0,
2011-09-18, 02:59:04,VALID,1000.25,VALID,0,VALID,93.1958,VALID,0,VALID,23.0396,VALID,63,VALID,0,
2011-09-18, 03:00:04,VALID,1000.24,VALID,0,VALID,93.2263,VALID,0,VALID,23.0378,VALID,63,VALID,0.175391,
2011-09-18, 03:01:04,VALID,1000.21,VALID,0,VALID,93.234,VALID,0,VALID,23.0183,VALID,63,VALID,0.289844,
2011-09-18, 03:02:04,VALID,1000.21,VALID,0,VALID,93.2492,VALID,0,VALID,23.0006,VALID,63,VALID,0.285937,
2011-09-18, 03:03:04,VALID,1000.22,VALID,0,VALID,93.2874,VALID,0,VALID,23.0006,VALID,63,VALID,0.227344,
2011-09-18, 03:04:04,VALID,1000.23,VALID,0,VALID,93.2797,VALID,0,VALID,23.0006,VALID,63,VALID,0.140625,
2011-09-18, 03:05:04,VALID,1000.23,VALID,0,VALID,93.2797,VALID,0,VALID,22.9811,VALID,63,VALID,0.177734,
2011-09-18, 03:06:04,VALID,1000.22,VALID,0,VALID,93.295,VALID,0,VALID,23.0023,VALID,63,VALID,0.168359,
2011-09-18, 03:07:04,VALID,1000.24,VALID,0,VALID,93.3179,VALID,0,VALID,22.9615,VALID,63,VALID,0.114063,
2011-09-18, 03:08:04,VALID,1000.23,VALID,0,VALID,93.3408,VALID,0,VALID,22.9633,VALID,63,VALID,0,
2011-09-18, 03:09:04,VALID,1000.21,VALID,0,VALID,93.3408,VALID,0,VALID,22.9615,VALID,63,VALID,0,
2011-09-18, 03:10:04,VALID,1000.23,VALID,0,VALID,93.3484,VALID,0,VALID,22.9598,VALID,63,VALID,0.148047,
2011-09-18, 03:11:04,VALID,1000.24,VALID,0,VALID,93.4094,VALID,0,VALID,22.9403,VALID,63,VALID,0.2625,
2011-09-18, 03:12:04,VALID,1000.22,VALID,0,VALID,93.4018,VALID,0,VALID,22.9615,VALID,63,VALID,0.409766,
2011-09-18, 03:13:04,VALID,1000.22,VALID,0,VALID,93.4171,VALID,0,VALID,22.9598,VALID,63,VALID,0.635547,
2011-09-18, 03:14:04,VALID,1000.25,VALID,0,VALID,93.4628,VALID,0,VALID,22.9988,VALID,63,VALID,0.727734,
2011-09-18, 03:15:04,VALID,1000.26,VALID,0,VALID,93.44,VALID,0,VALID,22.9988,VALID,63,VALID,0.972656,
2011-09-18, 03:16:04,VALID,1000.25,VALID,0,VALID,93.4323,VALID,0,VALID,22.9988,VALID,63,VALID,1.04844,
2011-09-18, 03:17:04,VALID,1000.25,VALID,0,VALID,93.4247,VALID,0,VALID,22.9793,VALID,63,VALID,1.19336,
2011-09-18, 03:18:04,VALID,1000.3,VALID,0,VALID,93.3866,VALID,0,VALID,22.9403,VALID,56,VALID,1.31172,
2011-09-18, 03:19:04,VALID,1000.28,VALID,0,VALID,93.3484,VALID,0,VALID,22.9208,VALID,50,VALID,1.19062,
2011-09-18, 03:20:04,VALID,1000.29,VALID,0,VALID,93.3408,VALID,0,VALID,22.8818,VALID,50,VALID,1.03906,
2011-09-18, 03:21:04,VALID,1000.3,VALID,0,VALID,93.3026,VALID,0,VALID,22.8427,VALID,50,VALID,0.890625,
2011-09-18, 03:22:04,VALID,1000.33,VALID,0,VALID,93.2797,VALID,0,VALID,22.8232,VALID,50,VALID,0.672656,
2011-09-18, 03:23:04,VALID,1000.34,VALID,0,VALID,93.2721,VALID,0,VALID,22.7842,VALID,50,VALID,0.671484,
2011-09-18, 03:24:04,VALID,1000.36,VALID,0,VALID,93.2874,VALID,0,VALID,22.7647,VALID,50,VALID,0.771094,
2011-09-18, 03:25:04,VALID,1000.32,VALID,0,VALID,93.2874,VALID,0,VALID,22.786,VALID,50,VALID,0.557813,
2011-09-18, 03:26:04,VALID,1000.34,VALID,0,VALID,93.2797,VALID,0,VALID,22.7452,VALID,50,VALID,0.616016,
2011-09-18, 03:27:04,VALID,1000.34,VALID,0,VALID,93.295,VALID,0,VALID,22.7062,VALID,50,VALID,0.267188,
2011-09-18, 03:28:04,VALID,1000.31,VALID,0,VALID,93.3026,VALID,0,VALID,22.7062,VALID,50,VALID,0.371875,
2011-09-18, 03:29:04,VALID,1000.34,VALID,0,VALID,93.3179,VALID,0,VALID,22.7257,VALID,50,VALID,0.558203,
2011-09-18, 03:30:04,VALID,1000.33,VALID,0,VALID,93.3331,VALID,0,VALID,22.7452,VALID,50,VALID,0.748438,
2011-09-18, 03:31:04,VALID,1000.35,VALID,0,VALID,93.3713,VALID,0,VALID,22.7842,VALID,50,VALID,0.573047,
2011-09-18, 03:32:04,VALID,1000.34,VALID,0,VALID,93.3789,VALID,0,VALID,22.7842,VALID,50,VALID,0.474219,
2011-09-18, 03:33:04,VALID,1000.37,VALID,0,VALID,93.3713,VALID,0,VALID,22.8037,VALID,50,VALID,0.600781,
2011-09-18, 03:34:04,VALID,1000.36,VALID,0,VALID,93.3866,VALID,0,VALID,22.8427,VALID,50,VALID,0.667578,
2011-09-18, 03:35:04,VALID,1000.38,VALID,0,VALID,93.3942,VALID,0,VALID,22.8623,VALID,50,VALID,0.536719,
2011-09-18, 03:36:04,VALID,1000.37,VALID,0,VALID,93.4094,VALID,0,VALID,22.9013,VALID,50,VALID,0.18125,
2011-09-18, 03:37:04,VALID,1000.36,VALID,0,VALID,93.4094,VALID,0,VALID,22.9013,VALID,50,VALID,0,
2011-09-18, 03:38:04,VALID,1000.41,VALID,0,VALID,93.4018,VALID,0,VALID,22.9013,VALID,50,VALID,0,
2011-09-18, 03:39:04,VALID,1000.4,VALID,0,VALID,93.3942,VALID,0,VALID,22.9013,VALID,50,VALID,0,
2011-09-18, 03:40:04,VALID,1000.38,VALID,0,VALID,93.3866,VALID,0,VALID,22.88,VALID,50,VALID,0.16875,
2011-09-18, 03:41:04,VALID,1000.4,VALID,0,VALID,93.3713,VALID,0,VALID,22.8818,VALID,50,VALID,0.0875,
2011-09-18, 03:42:04,VALID,1000.41,VALID,0,VALID,93.3331,VALID,0,VALID,22.841,VALID,50,VALID,0,
2011-09-18, 03:43:04,VALID,1000.4,VALID,0,VALID,93.3103,VALID,0,VALID,22.8427,VALID,50,VALID,0,
2011-09-18, 03:44:04,VALID,1000.4,VALID,0,VALID,93.295,VALID,0,VALID,22.8232,VALID,50,VALID,0,
2011-09-18, 03:45:04,VALID,1000.39,VALID,0,VALID,93.2874,VALID,0,VALID,22.7825,VALID,50,VALID,0,
2011-09-18, 03:46:04,VALID,1000.38,VALID,0,VALID,93.2645,VALID,0,VALID,22.7842,VALID,50,VALID,0,
2011-09-18, 03:47:04,VALID,1000.42,VALID,0,VALID,93.2797,VALID,0,VALID,22.7842,VALID,50,VALID,0,
2011-09-18, 03:48:04,VALID,1000.43,VALID,0,VALID,93.2568,VALID,0,VALID,22.7842,VALID,50,VALID,0,
2011-09-18, 03:49:04,VALID,1000.42,VALID,0,VALID,93.2874,VALID,0,VALID,22.7842,VALID,50,VALID,0,